DateTimeUTC,F1_A11,F1_S11,BsB_S11,BsG_S11,BsR_S11,BbsB_S11,BbsG_S11,BbsR_S11,BaB_A11,BaG_A11,BaR_A11,Tu_S11,T_S11,Uu_S11,U_S11,P_S11,T1_A11
2021-07-02T06:00:00Z,00000200,21000000,,,,,,,0000.08,-000.08,0000.06,18.3,25.3,01.2,00.8,0674.0,31.1
2021-07-02T06:01:00Z,00000200,21000000,,,,,,,0000.23,0000.09,0000.13,18.2,25.3,01.2,00.8,0674.0,31.1
2021-07-02T06:02:00Z,00000200,21000000,,,,,,,-000.09,-000.22,-000.11,18.2,25.3,01.2,00.8,0674.0,31.1
2021-07-02T06:03:00Z,00000200,61000000,,,,,,,0000.12,-000.03,-000.46,18.2,25.3,01.2,00.8,0674.0,31.1
2021-07-02T06:04:00Z,00000200,41000000,0000.77,0000.42,0000.24,0000.60,0000.24,0000.18,0000.06,0000.35,0000.59,18.2,24.9,01.3,00.8,0674.9,31.0
2021-07-02T06:05:00Z,00000200,01000000,0000.77,0000.62,0000.05,0000.29,0000.07,0000.04,-000.20,-000.48,0000.16,18.2,24.9,01.3,00.9,0675.0,31.0
2021-07-02T06:06:00Z,00000200,01000000,0000.44,0000.15,0000.40,0000.42,0000.13,0000.45,0000.53,0000.50,0000.08,18.1,24.8,01.4,00.9,0675.0,31.0
2021-07-02T06:07:00Z,00000200,01000000,0001.22,0000.05,0000.05,0000.44,0000.34,0000.08,-000.01,0000.13,0000.16,18.1,24.8,01.4,00.9,0675.0,31.0
2021-07-02T06:08:00Z,00000200,01000000,0001.02,0000.37,0000.01,-000.00,0000.12,0000.16,0000.66,0000.49,0000.06,18.0,24.7,01.5,01.0,0675.0,31.0
2021-07-02T06:09:00Z,00000200,01000000,0001.48,0000.07,-000.25,0000.93,-000.01,0000.04,-000.17,0000.10,0000.06,18.1,24.7,01.5,01.0,0675.0,31.0
2021-07-02T06:10:00Z,00000200,01000000,0000.81,0000.07,0000.13,0000.07,0000.23,0000.05,-000.06,-000.06,-000.12,18.2,24.8,01.6,01.1,0675.0,31.1
2021-07-02T06:11:00Z,00000200,01000000,0000.91,0000.19,0000.26,-000.04,0000.21,-000.02,0000.40,0000.13,0000.24,18.2,24.8,01.4,01.0,0675.0,31.1
2021-07-02T06:12:00Z,00000200,01000000,0001.05,0000.36,-000.18,0000.76,0000.03,-000.26,0000.12,0000.17,-000.12,18.3,24.8,01.6,01.1,0675.0,31.1
2021-07-02T06:13:00Z,00000200,01000000,0000.31,0000.16,0000.33,0000.22,-000.16,-000.07,0000.25,0000.29,0000.37,18.4,24.9,01.6,01.1,0675.1,31.1
2021-07-02T06:14:00Z,00000200,01000000,0000.64,0000.24,0000.13,0000.24,0000.00,-000.00,-000.14,0000.06,0000.12,18.4,24.9,01.7,01.1,0675.1,31.1
2021-07-02T06:15:00Z,00000200,01000000,0001.17,0000.42,0000.13,0000.21,0000.35,-000.22,0000.35,0000.27,0000.07,18.5,24.9,01.7,01.2,0675.1,31.1
2021-07-02T06:16:00Z,00000200,01000000,0001.21,0000.20,0000.11,-000.21,0000.12,0000.10,-000.03,-000.14,-000.05,18.5,24.9,01.6,01.1,0675.1,31.1
2021-07-02T06:17:00Z,00000200,01000000,0001.07,0000.34,0000.60,0000.56,-000.23,0000.48,0000.05,-000.06,0000.03,18.5,24.9,01.5,01.0,0675.0,31.1
2021-07-02T06:18:00Z,00000200,01000000,0000.28,0000.18,0000.25,0000.64,-000.02,-000.18,-000.09,-000.21,0000.11,18.5,24.9,01.6,01.1,0675.0,31.1
2021-07-02T06:19:00Z,00000200,01000000,0000.68,0000.14,0000.10,0000.14,0000.41,-000.04,0000.18,0000.49,-000.07,18.4,24.9,01.6,01.1,0675.0,31.1
2021-07-02T06:20:00Z,00000200,01000000,0001.34,-000.05,0000.02,0000.42,0000.11,-000.11,0000.04,-000.05,0000.04,18.3,24.8,01.7,01.1,0675.0,31.1
2021-07-02T06:21:00Z,00000200,01000000,0000.95,0000.16,0000.16,0000.13,0000.16,-000.11,0000.12,0000.23,0000.07,18.3,24.8,01.7,01.1,0675.0,31.0
2021-07-02T06:22:00Z,00000200,01000000,0000.58,0000.14,0000.00,-000.09,0000.05,0000.01,0000.14,-000.23,0000.07,18.2,24.8,01.6,01.1,0675.0,31.0
2021-07-02T06:23:00Z,00000200,01000000,0000.58,0000.21,-000.32,0000.51,0000.22,-000.29,0000.04,0000.10,0000.14,18.2,24.8,01.6,01.1,0675.0,31.1
2021-07-02T06:24:00Z,00000200,01000000,0000.70,0000.20,0000.17,0000.32,-000.03,0000.14,0000.32,0000.27,0000.14,18.2,24.8,01.6,01.1,0675.0,31.1
2021-07-02T06:25:00Z,00000200,01000000,0001.00,0000.43,-000.16,-000.23,0000.22,0000.17,-000.02,0000.03,-000.09,18.3,24.8,01.6,01.1,0675.0,31.1
2021-07-02T06:26:00Z,00000200,01000000,0000.47,0000.17,0000.05,-000.12,0000.06,0000.14,0000.27,0000.18,0000.16,18.4,24.8,01.6,01.1,0675.0,31.1
2021-07-02T06:27:00Z,00000200,01000000,0000.89,0000.02,0000.27,0000.08,0000.28,0000.34,-000.04,0000.13,0000.17,18.4,24.9,01.5,01.0,0675.0,31.1
2021-07-02T06:28:00Z,00000200,01000000,0000.91,0000.18,0000.27,0000.27,0000.17,-000.16,0000.10,0000.12,0000.33,18.5,24.9,01.6,01.0,0675.0,31.1
2021-07-02T06:29:00Z,00000200,01000000,0000.04,0000.24,0000.32,0000.35,-000.22,0000.12,0000.08,-000.04,-000.04,18.5,24.9,01.5,01.0,0675.0,31.1
2021-07-02T06:30:00Z,00000200,01000000,0000.66,-000.02,-000.06,0000.26,-000.06,0000.02,0000.39,0000.19,0000.07,18.5,24.9,01.6,01.1,0675.0,31.1
2021-07-02T06:31:00Z,00000200,01000000,0000.93,0000.30,0000.09,0000.17,0000.31,0000.06,-000.15,-000.04,-000.11,18.4,24.9,01.7,01.2,0675.0,31.1
2021-07-02T06:32:00Z,00000200,01000000,0000.80,0000.20,-000.02,0000.33,0000.17,-000.22,0000.42,0000.58,0000.20,18.4,24.8,01.8,01.2,0675.0,31.1
2021-07-02T06:33:00Z,00000200,01000000,0000.70,0000.15,0000.18,0000.45,0000.19,0000.08,0000.23,0000.09,0000.17,18.3,24.8,01.8,01.2,0675.0,31.1
2021-07-02T06:34:00Z,00000200,00000000,0000.79,0000.20,0000.28,0000.75,0000.24,0000.27,-000.06,-000.29,-000.23,18.2,24.7,02.0,01.3,0675.0,31.1
2021-07-02T06:35:00Z,00000200,00000000,0000.59,0000.71,0000.10,0000.17,-000.14,-000.22,0000.12,0000.40,0000.30,18.2,24.7,01.9,01.3,0675.0,31.0
2021-07-02T06:36:00Z,00000200,01000000,0000.88,0000.51,0000.08,0000.50,-000.04,0000.01,-000.18,-000.01,0000.02,18.1,24.7,01.9,01.3,0675.0,31.0
2021-07-02T06:37:00Z,00000200,01000000,0000.60,0000.20,-000.07,0000.70,0000.17,-000.08,0000.12,0000.03,0000.40,18.1,24.6,01.9,01.2,0674.9,31.0
2021-07-02T06:38:00Z,00000200,01000000,0000.46,0000.08,0000.35,0000.46,0000.18,0000.02,0000.26,0000.11,-000.15,18.1,24.6,01.8,01.2,0674.9,31.0
2021-07-02T06:39:00Z,00000200,00000000,0000.56,0000.16,-000.01,0000.39,0000.13,0000.04,0000.28,0000.25,-000.03,18.1,24.6,01.9,01.3,0674.9,31.0
2021-07-02T06:40:00Z,00000200,00000000,0001.08,0000.39,0000.21,0000.47,0000.09,0000.13,0000.21,-000.01,0000.26,18.1,24.6,01.9,01.3,0674.9,31.0
2021-07-02T06:41:00Z,00000200,00000000,0000.63,0000.57,0000.38,0000.47,0000.07,0000.24,-000.03,0000.50,0000.05,18.2,24.7,02.0,01.4,0674.9,31.1
2021-07-02T06:42:00Z,00000200,00000000,0000.23,0000.24,0000.46,0000.65,0000.24,0000.24,0000.33,-000.11,0000.08,18.3,24.7,02.0,01.3,0675.0,31.1
2021-07-02T06:43:00Z,00000200,00000000,0000.64,0000.12,-000.11,0000.50,0000.23,-000.13,0000.06,0000.17,0000.42,18.3,24.8,01.9,01.3,0674.9,31.1
2021-07-02T06:44:00Z,00000200,01000000,0000.53,0000.17,0000.01,0000.25,0000.11,-000.03,0000.10,-000.10,-000.12,18.4,24.8,01.9,01.3,0674.9,31.1
2021-07-02T06:45:00Z,00000200,01000000,0000.53,0000.28,0000.26,-000.44,0000.30,0000.12,-000.06,-000.04,-000.18,18.5,24.8,01.8,01.2,0674.9,31.1
2021-07-02T06:46:00Z,00000200,01000000,0000.51,0000.25,0000.18,-000.82,0000.02,-000.04,0000.19,0000.20,0000.09,18.5,24.8,01.9,01.3,0674.9,31.1
2021-07-02T06:47:00Z,00000200,01000000,0001.38,0000.31,0000.02,0000.31,0000.23,0000.06,0000.00,0000.20,0000.34,18.6,24.9,01.9,01.3,0674.9,31.1
2021-07-02T06:48:00Z,00000200,01000000,0000.75,0000.13,0000.65,0000.79,0000.13,0000.05,0000.11,0000.42,0000.21,18.5,24.9,01.8,01.2,0674.9,31.1
2021-07-02T06:49:00Z,00000200,00000000,0000.92,0000.13,0000.27,0000.89,0000.10,0000.10,0000.22,-000.39,-000.35,18.5,24.9,01.8,01.2,0674.9,31.1
2021-07-02T06:50:00Z,00000200,01000000,0000.81,0000.35,0000.42,0000.58,0000.24,0000.49,0000.12,0000.10,0000.53,18.5,24.8,01.9,01.3,0674.9,31.1
2021-07-02T06:51:00Z,00000200,00000000,0000.71,0000.26,-000.14,0000.60,0000.13,0000.04,0000.00,0000.19,-000.29,18.4,24.8,02.0,01.3,0674.9,31.1
2021-07-02T06:52:00Z,00000200,01000000,0000.45,0000.44,0000.04,0000.30,0000.10,-000.05,0000.31,0000.18,0000.16,18.3,24.8,01.9,01.3,0674.9,31.0
2021-07-02T06:53:00Z,00000200,00000000,0001.11,0000.47,0000.08,0000.11,-000.11,-000.09,-000.17,0000.22,0000.05,18.3,24.7,02.0,01.3,0674.9,31.1
2021-07-02T06:54:00Z,00000200,01000000,0000.75,0000.22,0000.31,0000.18,-000.13,0000.22,0000.23,-000.05,0000.17,18.3,24.7,01.9,01.3,0674.9,31.1
2021-07-02T06:55:00Z,00000200,01000000,0001.57,0000.16,0000.35,0000.46,0000.12,-000.04,0000.08,0000.37,0000.16,18.4,24.8,01.9,01.3,0674.9,31.1
2021-07-02T06:56:00Z,00000200,00000000,0001.00,0000.35,0000.34,0000.23,-000.02,-000.13,0000.05,-000.12,0000.05,18.4,24.8,02.0,01.3,0674.9,31.1
2021-07-02T06:57:00Z,00000200,40000000,,,,,,,-000.12,-000.15,-000.08,18.5,24.8,02.2,01.5,0675.0,31.1
2021-07-02T06:58:00Z,00000200,60000000,,,,,,,0000.29,-000.03,0000.16,18.3,25.0,01.7,01.1,0674.0,31.1
2021-07-02T06:59:00Z,00000200,20000000,,,,,,,-000.26,0000.07,-000.18,18.2,25.1,01.7,01.1,0673.9,31.1
